www.pogodaiklimat.ru

Погода и климат >> Архив погоды >> Россия >> Псковская область >> Псков


АРХИВ ПОГОДЫ в Пскове

Время (UTC), дата Ветер
(напр.,м/с)
 
Видим.   Явления Облачность Т
(С)
Тd
(С)
f
(%)
Тe
(С)
Тes
(С)
Комфортность P
(гПа)
Po
(гПа)
Тmin
(С)
Tmax
(С)
R
(мм)
R24
(мм)
S
(см)
09 15.08 З 1 20 км 5/5 600 м
[Cu med, cong]
+19.2 +10.7 58 +21 +27 комфорт 1011.7 1006.5
12 15.08 ЮЗ 3 20 км 5/5 1000 м
[Cu med, cong]
+21.1 +9.3 47 +22 +26 комфорт 1012.0 1006.8
15 15.08 ЮЗ 1 20 км {ливн. осадки} 4/4 600 м
[Cb cap]
+20.4 +12.1 59 +23 +25 комфорт 1012.9 1007.7 0.3
18 15.08 З 1 20 км {ливн. осадки} ясно +15.0 +10.4 74 +16 +16 по сезону 1014.0 1008.7 +30.0 0.3
21 15.08 штиль 0 20 км ясно +9.8 +8.6 92 +9 +9 холодно 1015.5 1010.1
00 16.08 З 1 20 км ясно +7.5 +6.9 96 +6 +6 холодно 1016.2 1010.7
03 16.08 Ю 1 20 км ясно +6.6 +6.2 97 +5 +5 очень
холодно
1017.0 1011.5 +5.9
06 16.08 штиль 0 20 км ясно +15.7 +11.7 77 +16 +21 по сезону 1017.4 1012.1 +5.9
09 16.08 ЮЗ 1 20 км 4/4 1000 м
[Cu hum]
+20.3 +9.2 49 +23 +30 комфорт 1017.1 1011.9
12 16.08 С 1 20 км 4/4 1000 м
[Cu hum]
+21.5 +6.9 39 +22 +29 комфорт 1017.0 1011.8
15 16.08 С 2 20 км 3/3 1000 м
[Cu hum]
+21.3 +7.1 40 +22 +24 комфорт 1016.7 1011.5
18 16.08 штиль 0 20 км ясно +14.3 +10.6 78 +14 +14 прохладно 1016.9 1011.6 +22.3
21 16.08 штиль 0 20 км ясно +9.8 +9.1 95 +9 +9 холодно 1017.8 1012.4
00 17.08 штиль 0 20 км ясно +8.0 +7.5 97 +7 +7 холодно 1018.3 1012.8
03 17.08 штиль 0 20 км ясно +7.0 +6.6 97 +6 +6 очень
холодно
1018.5 1013.0 +6.7
06 17.08 Ю 1 20 км ясно +16.8 +10.7 67 +18 +23 тепло 1018.7 1013.4 +6.7
09 17.08 ЮВ 1 20 км 1/1 600 м
[Cu hum]
+21.8 +9.3 45 +23 +34 комфорт 1018.2 1013.0
12 17.08 В 2 19 км н/о +22.8 +8.0 39 +24 +24 комфорт 1017.2 1012.0
15 17.08 ЮВ 2 20 км 3/3 600 м
[Cu hum]
+22.5 +8.0 39 +24 +25 комфорт 1016.3 1011.1
18 17.08 ЮВ 2 20 км ясно +18.2 +9.9 58 +19 +19 тепло 1016.4 1011.1 +23.9
21 17.08 штиль 0 20 км ясно +10.2 +9.3 94 +9 +9 холодно 1016.0 1010.6
00 18.08 штиль 0 20 км ясно +8.1 +7.5 96 +7 +7 холодно 1016.0 1010.6
03 18.08 штиль 0 20 км 3/0
[Ac trans]
+6.6 +6.1 97 +5 +5 очень
холодно
1015.1 1009.6 +6.6
06 18.08 штиль 0 20 км 3/0
[Ac trans]
+17.3 +10.2 63 +17 +22 тепло 1014.3 1009.0 +6.6
09 18.08 СВ 1 20 км 4/0
[Cs]
+21.9 +9.4 45 +23 +34 комфорт 1013.5 1008.3
12 18.08 Ю 1 20 км 8/8 600 м
[Cb cap Cs]
+25.0 +10.4 40 +26 +28 жарко 1012.6 1007.5
15 18.08 ЮВ 1 20 км 4/3 600 м
[Cb cap Ac cast]
+23.0 +10.6 45 +25 +27 комфорт 1012.6 1007.4
18 18.08 штиль 0 20 км 8/0
[Cs]
+15.9 +13.6 86 +16 +16 по сезону 1012.8 1007.5 +25.5
21 18.08 штиль 0 20 км ясно +12.0 +11.4 96 +11 +11 прохладно 1012.7 1007.4
00 19.08 ЮВ 1 20 км ясно +10.3 +9.9 97 +10 +10 по сезону 1012.9 1007.5
03 19.08 ЮВ 1 20 км 9/6 600 м
[Sc Ac cast]
+11.6 +11.1 97 +11 +11 прохладно 1012.2 1006.8 +10.2
06 19.08 Ю 2 20 км 10/0
[Ac und]
+17.2 +12.8 75 +18 +20 тепло 1011.3 1006.1 +10.2
09 19.08 Ю 2 20 км 10/0
[Ac und]
+19.4 +14.5 73 +22 +27 комфорт 1010.9 1005.7
12 19.08 ЮЗ 1 20 км 8/8 600 м
[Cb cap Ci fib]
+24.9 +16.6 60 +28 +31 жарко 1011.7 1006.6
15 19.08 ЮЗ 2 20 км 8/4 600 м
[Cb cap Ci]
+26.5 +15.9 52 +30 +31 душно 1012.3 1007.2
18 19.08 СЗ 1 20 км 10/10 600 м
[Sc]
+21.6 +16.6 73 +25 +25 комфорт 1014.2 1009.0 +28.4
21 19.08 СЗ 1 20 км 10/8 600 м
[Cu Sc Ac trans]
+19.3 +14.4 73 +22 +22 комфорт 1016.1 1010.9
00 20.08 З 1 20 км 6/0
[Ac trans]
+15.5 +12.3 81 +16 +16 тепло 1017.5 1012.2
03 20.08 З 1 20 км 6/0
[Ac trans]
+11.9 +11.0 94 +12 +12 по сезону 1019.1 1013.7 +11.9
06 20.08 штиль 0 20 км 8/0
[Ac trans Ci fib]
+16.0 +12.9 82 +16 +19 тепло 1020.8 1015.5 +11.4
09 20.08 З 1 20 км 5/0
[Ci fib]
+21.6 +11.8 54 +24 +34 комфорт 1021.0 1015.8
12 20.08 ЮЗ 1 20 км 8/5 600 м
[Cu hum Ci fib]
+25.1 +10.4 40 +26 +31 жарко 1021.5 1016.3
15 20.08 З 1 20 км 8/6 600 м
[Cu hum Ci fib]
+23.1 +11.8 49 +26 +27 жарко 1022.0 1016.8
18 20.08 штиль 0 20 км ясно +15.7 +13.3 86 +15 +15 по сезону 1022.9 1017.6 +25.5
21 20.08 штиль 0 20 км 10/0
[Ac und]
+13.7 +12.9 95 +13 +13 по сезону 1023.9 1018.5
00 21.08 штиль 0 20 км 6/6 600 м
[Sc]
+12.4 +11.8 96 +12 +12 по сезону 1024.4 1019.0
03 21.08 штиль 0 20 км 6/3 600 м
[Sc Ci fib]
+11.0 +10.5 97 +10 +10 прохладно 1024.6 1019.2 +10.8
06 21.08 Ю 1 20 км 9/8 600 м
[Sc diur, vesp Ac trans Ci fib]
+15.6 +13.3 86 +16 +17 тепло 1024.8 1019.5 +10.8
09 21.08 В 1 20 км 10/10 600 м
[Cb calv]
+18.1 +14.4 79 +19 +19 тепло 1024.0 1018.7
12 21.08 СВ 1 4000 м слаб. ливневой дождь 10/10 600 м
[Cb calv]
+17.5 +16.3 93 +19 +19 по сезону 1022.9 1017.6
15 21.08 СВ 2 4000 м ливневой дождь 10/10 300 м
[Cb calv]
+16.1 +14.8 92 +16 +16 по сезону 1020.9 1015.6 11
18 21.08 С 3 4000 м слаб. ливневой дождь 10/10 600 м
[Cb cap]
+14.1 +13.0 93 +13 +13 прохладно 1020.1 1014.8 +18.5 17
21 21.08 СЗ 1 20 км {ливн. осадки} 10/8 600 м
[Cb cap Ac trans]
+13.8 +12.9 94 +14 +14 по сезону 1021.4 1016.0
00 22.08 З 1 20 км {ливн. осадки} 8/6 600 м
[Cb cap Ac trans]
+12.6 +11.9 95 +13 +13 по сезону 1022.9 1017.5
03 22.08 З 1 50 км 10/10 600 м
[Cb cap]
+12.2 +11.6 96 +12 +12 по сезону 1024.2 1018.8 +12.0 7
06 22.08 З 1 50 км 9/9 600 м
[Cb cap]
+14.4 +13.1 92 +15 +15 по сезону 1025.3 1019.9 +12.0 0.8

 

Местоположение метеостанции Псков (Псковская область, Россия): широта 57.82 долгота 28.33 высота над уровнем моря 44 м.

В архиве по умолчанию представлена погода в Пскове за последнюю неделю. Архивные данные за месяц целиком и за предыдущие месяцы, начиная с января 2011 года, Вы можете получить, выбрав интересующий диапазон дат из раскрывающегося списка и нажав кнопку "Ввод!".


*Определитесь, кто Вы:
робот инопланетянин человек

Внимание! Время в таблицах - всемирное. Для получения местного времени необходимо прибавить поправку, которая равна 3 ч.

Смотрите также архив погоды в соседних городах и на ближайших метеорологических станциях:

Погода в Стругах-Красных (Псковская область, Россия) (68 км)
Погода в Выру (Эстония) (78 км)
Погода в Алуксне (Латвия) (89 км)
Погода в Пушкинских Горах (Псковская область, Россия) (95 км)
Погода в Дно (Псковская область, Россия) (96 км)
Погода в Гдове (Псковская область, Россия) (105 км)
Погода в Тарту (Эстония) (108 км)
Погода в Николаевском (Ленинградская область, Россия) (120 км)
Погода в Гулбене (Латвия) (123 км)
Погода в Опочке (Псковская область, Россия) (125 км)

Пояснения к столбцам:

Ветер - указаны скорость ветра в м/с - средняя за 10 мин, порывы в срок и между сроками (в фигурных скобках) и направление, откуда дует ветер: С - северный, СВ - северо-восточный, В - восточный, ЮВ - юго-восточный, Ю - южный, ЮЗ - юго-западный, З - западный, СЗ - северо-западный.
Видимость - горизонтальная дальность видимости в метрах или километрах. При видимости от 1 до 10 км при отсутствии осадков обычно наблюдается дымка, при ухудшении видимости до 1 км и менее - туман. В сухую погоду видимость может ухудшаться дымом, пылью или мглою.
Явления - указаны атмосферные явления, наблюдавшиеся в срок или в последний час перед сроком; фигурными скобками обозначены явления, наблюдавшиеся между сроками (за 1-3 часа до срока); квадратными скобками обозначены град или гололедные отложения с указанием их диаметра в мм.
Облачность - указаны через наклонную черту общая и нижняя облачность в баллах и высота нижней границы облаков в метрах; квадратными скобками обозначены формы облаков: Ci - перистые, Cs - перисто-слоистые, Cc - перисто-кучевые, Ac - высококучевые, As - высокослоистые, Sc - слоисто-кучевые, Ns - слоисто-дождевые, Cu - кучевые, Cb - кучево-дождевые. Подробнее классификацию облаков см. в Атласе облаков (PDF).
T - Температура воздуха - температура, измеренная на высоте 2 м над землей.
Td - Температура точки росы - температура, при понижении до которой содержащийся в воздухе водяной пар достигнет насыщения.
f - Относительная влажность воздуха - влажноcть воздуха, измеренная на высоте 2 м над землей.
Te - Эффективная температура - температура, которую ощущает одетый по сезону человек в тени. Характеристика душности погоды. При расчете учитывается влияние влажности воздуха и скорости ветра на теплоощущения человека.
Tes - Эффективная температура на солнце - температура, которую ощущает человек, с поправкой на солнечный нагрев. Характеристика знойности погоды. Зависит от высоты солнца над горизонтом, облачности и скорости ветра. Ночью, в пасмурную погоду, а также при ветре 12 м/с и более поправка равна нулю.
P - Атмосферное давление - приведенное к уровню моря атмосферное давление.
Po - Атмосферное давление - измеренное на уровне метеостанции атмосферное давление.
Tmin - Минимальная температура - минимум температуры воздуха на высоте 2 м над землей.
Tmax - Максимальная температура - максимум температуры воздуха на высоте 2 м над землей.
R - Количество осадков - Количество выпавших осадков за период времени, мм. При наведении курсора мыши на число - период времени, за который выпало указанное количество осадков.
R24 - Количество осадков - Количество выпавших осадков за 24 часа, мм.
S - Снежный покров - Высота снежного покрова, см. При наведении курсора мыши на число - состояние снежного покрова и степень покрытия местности в баллах.